User: anonymous   Login
Location: Notre Dame Regional High School Observatory
(37.3056°N, 89.6097°W)
Time: 07:49:40
(UTC-05:00)
Language:

ATLAS 3B R/B - Orbit

View from above orbital plane
View from above orbital plane
View from above satellite
View from above satellite

Ground track
Ground track

The orbit data is extracted from the following two-line orbital elements,

1 28538U 05004B   17289.07251795 0.00000000  00000-0  00000-0 0    01
2 28538  63.8208 351.8422 0136000 166.3399 193.6601 13.43102562    00
Epoch (UTC): 16 October 2017 01:44:25
Eccentricity: 0.0136000
inclination: 63.8208°
perigee height: 996 km
apogee height: 1199 km
right ascension of ascending node: 351.8422°
argument of perigee: 166.3399°
revolutions per day: 13.43102562
mean anomaly at epoch: 193.6601°
orbit number at epoch: 0

The dashed part of the orbit path shows where the satellite is in the earth's shadow,  

DLR